Location: Unspecified
(0.0000°N, 0.0000°E)
Time: 08:08:08
(UTC+02:00)

Cosmos 1908 Rocket - Visible Passes

Search period start: 01 May 2016 00:00
Search period end: 11 May 2016 00:00
Orbit: 607 x 632 km, 82.5° (Epoch: 30 April)

Date Brightness Start Highest point End Pass type
(mag) Time Alt. Az. Time Alt. Az. Time Alt. Az.
01 May 4.5 20:42:07 10° NNE 20:45:46 26° E 20:48:45 13° SE visible
01 May 6.7 22:22:17 10° W 22:23:21 11° W 22:24:24 10° WSW visible
02 May 3.5 20:58:57 10° N 21:03:14 63° E 21:07:32 10° SSE visible
03 May 4.3 21:16:29 10° NNW 21:20:43 52° W 21:24:57 10° S visible
04 May 5.9 21:34:47 10° NW 21:38:12 23° W 21:41:36 10° SW visible
06 May 3.5 20:31:15 10° N 20:35:34 70° E 20:39:52 10° S visible
07 May 4.6 20:48:52 10° NNW 20:53:02 47° W 20:57:12 10° SSW visible
08 May 6.2 21:07:17 10° NW 21:10:30 21° W 21:13:44 10° SW visible
